Regional Weather Roundup
Issued by NWS

Home | Current Version | Previous Version | Text Only | Print | Product List | Glossary Off
Versions: 1 2 3 4 5 6 7 8 9 10 11 12 13 14 15 16 17 18 19 20 21 22 23 24 25 26 27 28 29 30 31 32 33 34 35 36 37 38 39 40 41 42 43 44 45 46 47 48 49 50

000
ASUS43 KLOT 051000
RWRIL

ILLINOIS REGIONAL WEATHER ROUNDUP
NATIONAL WEATHER SERVICE CHICAGO/ROMEOVILLE IL
500 AM CDT TUE MAY 05 2015

NOTE: "FAIR" INDICATES FEW OR NO CLOUDS BELOW 12,000 FEET WITH NO
SIGNIFICANT WEATHER AND/OR OBSTRUCTIONS TO VISIBILITY.

* THESE STATIONS ARE NOT UNDER NWS QUALITY CONTROL. THEY ALSO MAY NOT
  REPORT WEATHER SUCH AS PRECIPITATION OR FOG.

ILZ001-002-007-009-015-016-024-051100-
NORTHWEST ILLINOIS

CITY           SKY/WX    TMP DP  RH WIND       PRES   REMARKS
MOLINE         LGT RAIN  59  57  93 E12       30.09F FOG
STERLING*      CLOUDY    55  52  88 E9        30.16S
$$

ILZ003-004-008-010-011-017-018-051100-
NORTH CENTRAL ILLINOIS

CITY           SKY/WX    TMP DP  RH WIND       PRES   REMARKS
ROCKFORD       LGT RAIN  53  49  86 E9G23     30.20R
$$

ILZ005-006-012>014-019>023-051100-
NORTHEAST ILLINOIS

CITY           SKY/WX    TMP DP  RH WIND       PRES   REMARKS
CHICAGO-OHARE  TSTM      49  48  97 E12       30.19F FOG
CHICAGO-MIDWAY TSTM      53  50  89 N7        30.19R FOG
AURORA         RAIN      52  48  86 NE10      30.19R FOG
WAUKEGAN       LGT RAIN  48  45  89 NE7       30.21S
DUPAGE AIRPORT RAIN      50  48  93 NE7       30.19S FOG
WHEELING       RAIN      49  46  90 N7        30.22R FOG
NORTHERLY ISL    N/A     51  48  89 NW5         N/A
$$

LMZ740>746-051100-
SOUTHERN LAKE MICHIGAN

STATION/POSITION SKY/WX   TEMP    WIND        PRES    VSBY  WAVE
                          AIR SEA DIR/SP/G                  HT/PER
                          (F)     (DEG/KT/KT) (MB)    (MI)  (FT/S)
HARRISON CRIB              47     360/ 14/ 15   N/A
BURNHAM HARBOR             49     350/  8/ 11   N/A
CALUMET HARBOR             49     350/  5/  7   N/A
BURNS HARBOR               49      60/ 10/ 11 1022.0F
MICHIGAN CITY              49      30/  6/  7   N/A
MICHIGAN CITY 6N           47 50   10/ 10/ 12   N/A           1/ 2
ST. JOSEPH                 51 49  270/ 10/ 12   N/A           1
$$

ILZ025>027-034>036-040-047-049-050-058-095>099-051100-
WEST-CENTRAL ILLINOIS

CITY           SKY/WX    TMP DP  RH WIND       PRES   REMARKS
QUINCY         CLOUDY    63  60  90 SE7       30.10R
$$

ILZ028>032-037-038-041>044-048-051>054-059>061-051100-
CENTRAL ILLINOIS

CITY           SKY/WX    TMP DP  RH WIND       PRES   REMARKS
DECATUR        MOCLDY    68  54  60 SW13      30.14R
PEORIA         CLOUDY    64  61  90 NE8       30.12F FOG
SPRINGFIELD    CLOUDY    66  55  67 SW3       30.14R
TAYLORVILLE    NOT AVBL
$$

ILZ033-039-045-046-055>057-062-063-051100-
EAST-CENTRAL ILLINOIS

CITY           SKY/WX    TMP DP  RH WIND       PRES   REMARKS
CHAMPAIGN      MOCLDY    63  55  75 S8        30.14S
MATTOON        MOCLDY    65  53  65 S6        30.15S
$$

ILZ079-100>102-051100-
SOUTHWEST ILLINOIS

CITY           SKY/WX    TMP DP  RH WIND       PRES   REMARKS
CAHOKIA*       MOCLDY    64  54  69 SE3       30.14S
$$

ILZ064>066-069>071-074>076-080>082-084>086-088>090-092>094-051100-
SOUTH-CENTRAL ILLINOIS

CITY           SKY/WX    TMP DP  RH WIND       PRES   REMARKS
CARBONDALE     PTCLDY    55  52  89 CALM      30.18S
MT. VERNON     PTCLDY   N/A N/A N/A CALM      30.19S
$$

ILZ067-068-072-073-078-083-087-091-051100-
SOUTHEAST ILLINOIS

CITY           SKY/WX    TMP DP  RH WIND       PRES   REMARKS
LAWRENCEVILLE  PTCLDY    59  54  83 S7        30.19S
$$

ABBREVIATIONS USED IN REMARKS
   TC - TEMPERATURE IN CELSIUS
  WCI - WIND CHILL INDEX
   HX - HEAT INDEX
  VSB - VISIBILITY
$$



USA.gov is the U.S. government's official web portal to all federal, state and local government web resources and services.